Location: Bogis-Bossey
(46.3500°N, 6.1667°E)
Time: 18:23:24
(UTC+00:00)

Cosmos 1707 Rocket - Pass Details

Date: 17 August 2022
Orbit: 603 x 632 km, 82.5° (Epoch: 30 September)

Event Time Altitude Azimuth Distance (km) Brightness Sun altitude
Rises 21:44:59 0° 350° (N) 2,928 8.1 -25.1°
Reaches altitude 10° 21:47:14 10° 350° (N) 2,012 7.1 -25.3°
Enters shadow 21:51:18 73° 332° (NNW) 656 3.7 -25.7°
